TimeCST,TemperatureF,Dew PointF,Humidity,Sea Level PressureIn,VisibilityMPH,Wind Direction,Wind SpeedMPH,Gust SpeedMPH,PrecipitationIn,Events,Conditions,WindDirDegrees,DateUTC
12:15 AM,41.9,29.8,62,29.98,10.0,North,3.5,-,N/A,,Overcast,350,2012-12-07 06:15:00
12:35 AM,41.0,29.8,64,29.97,10.0,North,4.6,-,N/A,,Overcast,350,2012-12-07 06:35:00
12:55 AM,41.4,30.0,64,29.97,10.0,North,5.8,-,N/A,,Overcast,360,2012-12-07 06:55:00
1:15 AM,41.7,30.0,63,29.97,10.0,North,5.8,-,N/A,,Overcast,350,2012-12-07 07:15:00
1:35 AM,41.2,30.2,65,29.97,10.0,North,6.9,-,N/A,,Overcast,360,2012-12-07 07:35:00
1:55 AM,40.3,29.3,65,29.97,10.0,North,6.9,-,N/A,,Overcast,360,2012-12-07 07:55:00
2:15 AM,39.4,28.8,66,29.97,10.0,North,4.6,-,N/A,,Overcast,350,2012-12-07 08:15:00
2:35 AM,38.1,28.4,68,29.96,10.0,North,4.6,-,N/A,,Mostly Cloudy,350,2012-12-07 08:35:00
2:55 AM,37.4,28.2,69,29.96,10.0,North,3.5,-,N/A,,Scattered Clouds,350,2012-12-07 08:55:00
3:15 AM,36.9,27.9,70,29.95,10.0,North,4.6,-,N/A,,Clear,360,2012-12-07 09:15:00
3:35 AM,35.6,27.5,72,29.95,10.0,North,4.6,-,N/A,,Clear,360,2012-12-07 09:35:00
3:55 AM,35.6,27.9,73,29.95,10.0,Calm,Calm,-,N/A,,Scattered Clouds,0,2012-12-07 09:55:00
4:15 AM,34.7,27.7,76,29.94,10.0,Calm,Calm,-,N/A,,Mostly Cloudy,0,2012-12-07 10:15:00
4:35 AM,35.8,28.4,75,29.94,10.0,North,4.6,-,N/A,,Overcast,360,2012-12-07 10:35:00
4:55 AM,35.8,28.9,76,29.94,10.0,NE,4.6,-,N/A,,Overcast,40,2012-12-07 10:55:00
5:15 AM,34.9,28.8,78,29.94,10.0,Calm,Calm,-,N/A,,Overcast,0,2012-12-07 11:15:00
5:35 AM,35.1,29.1,79,29.94,10.0,NNE,4.6,-,N/A,,Mostly Cloudy,30,2012-12-07 11:35:00
5:55 AM,34.9,29.7,81,29.94,10.0,Calm,Calm,-,N/A,,Scattered Clouds,0,2012-12-07 11:55:00
6:15 AM,34.7,29.8,82,29.94,10.0,NE,4.6,-,N/A,,Clear,40,2012-12-07 12:15:00
6:35 AM,33.8,29.7,85,29.95,10.0,NNE,4.6,-,N/A,,Clear,20,2012-12-07 12:35:00
6:55 AM,33.4,29.7,86,29.95,10.0,NNE,4.6,-,N/A,,Clear,30,2012-12-07 12:55:00
7:15 AM,33.1,29.8,88,29.94,10.0,NE,5.8,-,N/A,,Clear,50,2012-12-07 13:15:00
7:35 AM,32.4,29.3,88,29.94,10.0,ENE,4.6,-,N/A,,Clear,70,2012-12-07 13:35:00
7:55 AM,32.9,29.8,88,29.94,10.0,ENE,5.8,-,N/A,,Clear,60,2012-12-07 13:55:00
8:15 AM,33.8,30.2,87,29.93,10.0,ENE,6.9,-,N/A,,Clear,60,2012-12-07 14:15:00
8:35 AM,35.6,30.6,82,29.93,10.0,ENE,5.8,-,N/A,,Clear,60,2012-12-07 14:35:00
8:55 AM,36.9,30.2,77,29.93,10.0,ENE,5.8,-,N/A,,Clear,70,2012-12-07 14:55:00
9:15 AM,37.6,29.8,74,29.93,10.0,East,6.9,-,N/A,,Clear,80,2012-12-07 15:15:00
9:35 AM,38.3,29.7,71,29.93,10.0,ENE,4.6,-,N/A,,Clear,70,2012-12-07 15:35:00
9:55 AM,39.2,28.9,67,29.93,10.0,East,8.1,-,N/A,,Clear,80,2012-12-07 15:55:00
10:15 AM,40.6,28.2,61,29.92,10.0,East,8.1,-,N/A,,Clear,90,2012-12-07 16:15:00
10:35 AM,42.6,26.1,52,29.91,10.0,ESE,10.4,-,N/A,,Clear,110,2012-12-07 16:35:00
10:55 AM,42.8,26.8,53,29.89,10.0,East,9.2,-,N/A,,Clear,100,2012-12-07 16:55:00
11:15 AM,44.2,26.1,49,29.90,10.0,SE,5.8,-,N/A,,Clear,130,2012-12-07 17:15:00
11:35 AM,44.6,25.5,47,29.91,10.0,Calm,Calm,-,N/A,,Clear,0,2012-12-07 17:35:00
11:55 AM,44.8,25.9,48,29.92,10.0,Calm,Calm,-,N/A,,Clear,0,2012-12-07 17:55:00
12:15 PM,45.1,25.5,46,29.91,10.0,Calm,Calm,-,N/A,,Clear,0,2012-12-07 18:15:00
12:35 PM,45.5,25.2,45,29.90,10.0,Calm,Calm,-,N/A,,Scattered Clouds,0,2012-12-07 18:35:00
12:55 PM,45.5,24.6,44,29.90,10.0,NW,3.5,-,N/A,,Mostly Cloudy,320,2012-12-07 18:55:00
1:15 PM,45.7,24.1,43,29.90,10.0,NNW,5.8,-,N/A,,Overcast,340,2012-12-07 19:15:00
1:35 PM,45.0,24.1,44,29.90,10.0,NW,8.1,-,N/A,,Overcast,320,2012-12-07 19:35:00
1:55 PM,45.0,23.7,43,29.90,10.0,NW,8.1,-,N/A,,Overcast,310,2012-12-07 19:55:00
2:15 PM,45.0,23.7,43,29.90,10.0,NNW,5.8,-,N/A,,Overcast,340,2012-12-07 20:15:00
2:35 PM,44.6,23.5,44,29.90,10.0,North,4.6,-,N/A,,Overcast,350,2012-12-07 20:35:00
2:55 PM,44.2,23.9,45,29.89,10.0,North,6.9,-,N/A,,Overcast,10,2012-12-07 20:55:00
3:15 PM,43.9,24.4,46,29.88,10.0,NE,8.1,-,N/A,,Overcast,40,2012-12-07 21:15:00
3:35 PM,43.3,23.9,46,29.89,10.0,North,5.8,-,N/A,,Overcast,10,2012-12-07 21:35:00
3:55 PM,43.0,23.9,47,29.90,10.0,North,5.8,-,N/A,,Overcast,350,2012-12-07 21:55:00
4:15 PM,42.1,24.6,50,29.90,10.0,North,4.6,-,N/A,,Overcast,10,2012-12-07 22:15:00
4:35 PM,41.9,24.4,50,29.89,10.0,NNE,5.8,-,N/A,,Overcast,20,2012-12-07 22:35:00
4:55 PM,41.5,23.7,49,29.87,10.0,ENE,6.9,-,N/A,,Overcast,70,2012-12-07 22:55:00
5:15 PM,40.1,23.9,52,29.88,10.0,NE,5.8,-,N/A,,Mostly Cloudy,50,2012-12-07 23:15:00
5:35 PM,40.1,24.3,53,29.89,10.0,NNE,3.5,-,N/A,,Overcast,20,2012-12-07 23:35:00
5:55 PM,39.4,24.1,54,29.89,10.0,NE,4.6,-,N/A,,Mostly Cloudy,50,2012-12-07 23:55:00
6:15 PM,38.1,23.9,57,29.90,10.0,NNE,3.5,-,N/A,,Scattered Clouds,20,2012-12-08 00:15:00
6:35 PM,37.6,23.9,58,29.90,10.0,NNE,5.8,-,N/A,,Clear,30,2012-12-08 00:35:00
6:55 PM,36.9,23.9,59,29.91,10.0,Calm,Calm,-,N/A,,Clear,0,2012-12-08 00:55:00
7:15 PM,36.0,24.1,62,29.92,10.0,North,3.5,-,N/A,,Clear,350,2012-12-08 01:15:00
7:35 PM,35.6,24.6,64,29.93,10.0,NNW,3.5,-,N/A,,Clear,340,2012-12-08 01:35:00
7:55 PM,34.9,24.8,67,29.93,10.0,North,4.6,-,N/A,,Clear,360,2012-12-08 01:55:00
8:15 PM,35.6,25.5,67,29.93,10.0,North,3.5,-,N/A,,Clear,360,2012-12-08 02:15:00
8:35 PM,35.8,25.7,67,29.93,10.0,NNE,3.5,-,N/A,,Clear,20,2012-12-08 02:35:00
8:55 PM,35.8,25.7,67,29.93,10.0,NNE,4.6,-,N/A,,Clear,20,2012-12-08 02:55:00
9:15 PM,35.6,26.1,68,29.95,10.0,North,4.6,-,N/A,,Clear,360,2012-12-08 03:15:00
9:55 PM,34.9,25.3,68,29.94,10.0,NNE,4.6,-,N/A,,Clear,30,2012-12-08 03:55:00
10:15 PM,34.7,25.3,69,29.96,10.0,Calm,Calm,-,N/A,,Clear,0,2012-12-08 04:15:00
10:35 PM,33.8,25.0,70,29.96,10.0,Calm,Calm,-,N/A,,Clear,0,2012-12-08 04:35:00
10:55 PM,34.5,25.2,69,29.96,10.0,Calm,Calm,-,N/A,,Clear,0,2012-12-08 04:55:00
11:15 PM,33.6,25.2,71,29.96,10.0,Calm,Calm,-,N/A,,Clear,0,2012-12-08 05:15:00
11:35 PM,33.1,25.3,73,29.95,10.0,Calm,Calm,-,N/A,,Clear,0,2012-12-08 05:35:00
11:55 PM,31.6,24.3,74,29.96,10.0,Calm,Calm,-,N/A,,Clear,0,2012-12-08 05:55:00